This is the latest recevied weather packets stored in our database for station/object WB0RXX. If no packets are shown the sender has not sent any weather packets the latest 10 day(s).
| Time | Temp. | Humidity | Pressure | Rain* | Wind** | Luminosity | Snow |
|---|---|---|---|---|---|---|---|
| 1777752604 | 20.56° C | 30% | 1013 hPa | 0 mm | - | - | - |
| 1777752003 | 20° C | 30% | 1013.1 hPa | 0 mm | - | - | - |
| 1777751405 | 20° C | 30% | 1013.3 hPa | 0 mm | - | - | - |
| 1777750818 | 20° C | 30% | 1013.4 hPa | 0 mm | - | - | - |
| 1777750205 | 20° C | 29% | 1013.7 hPa | 0 mm | - | - | - |
| 1777749618 | 20° C | 29% | 1013.7 hPa | 0 mm | - | - | - |
| 1777749003 | 20° C | 32% | 1014 hPa | 0 mm | - | - | - |
| 1777748404 | 20° C | 30% | 1014 hPa | 0 mm | - | - | - |
| 1777747804 | 20° C | 31% | 1014.1 hPa | 0 mm | - | - | - |
| 1777747203 | 20° C | 32% | 1014.2 hPa | 0 mm | - | - | - |
| 1777746619 | 20° C | 33% | 1014.5 hPa | 0 mm | - | - | - |
| 1777746004 | 20° C | 35% | 1014.6 hPa | 0 mm | - | - | - |
| 1777745403 | 20° C | 31% | 1014.7 hPa | 0 mm | - | - | - |
| 1777744803 | 19.44° C | 35% | 1014.9 hPa | 0 mm | - | - | - |
| 1777744205 | 19.44° C | 35% | 1015.1 hPa | 0 mm | - | - | - |
| 1777743604 | 18.89° C | 35% | 1015.2 hPa | 0 mm | - | - | - |
| 1777743004 | 18.89° C | 36% | 1015.5 hPa | 0 mm | - | - | - |
| 1777742404 | 18.33° C | 37% | 1015.7 hPa | 0 mm | - | - | - |
| 1777741805 | 18.33° C | 36% | 1015.8 hPa | 0 mm | - | - | - |
| 1777741204 | 17.78° C | 37% | 1015.9 hPa | 0 mm | - | - | - |
| 1777740604 | 17.78° C | 37% | 1016.1 hPa | 0 mm | - | - | - |
| 1777740005 | 17.22° C | 38% | 1016.2 hPa | 0 mm | - | - | - |
| 1777739405 | 16.67° C | 39% | 1016.4 hPa | 0 mm | - | - | - |
| 1777738803 | 16.67° C | 38% | 1016.5 hPa | 0 mm | - | - | - |
| 1777738205 | 16.11° C | 39% | 1016.7 hPa | 0 mm | - | - | - |
* Rain latest hour (hover to see other rain measurements)
** Current wind speed in m/s (hover to see current wind gust speed)